YAOGAN-32 B

Satellite information

Favourite Embed

Satellite Type and Status

PAYLOADIN ORBIT

Key statistics

Satellite YAOGAN-32 B at a glance.

Uptime

2464

Days in orbit

Revolutions

≈ 14.6

Per day

Orbit

SSO

Sun Synchronous Orbit

Inclination

97.9

Latest

Satellite identification and parameters

Extended collection of information and parameters for YAOGAN-32 B.

Object identification

Identified? True

Debris? False

Object name: YAOGAN-32 B

International designator: 2018-077B

Object number (NORAD): 43643

Object ID (CCSDS): 43643

Country: PEOPLES REPUBLIC OF CHINA (PRC)

Current information (Y/N): Y

RCS size: LARGE

Orbital parameters

Period: 98.455 minutes

Inclination: 97.9399 deg

SMA: 7062.935 km

Apoapsis: 685.938 km

Periapsis: 683.661 km

RAAN: 221.7962 deg

Eccentricy: 0.0001612

Argument of periapsis: 98.382 deg

Mean anomaly: 261.7565 deg

Mean motion: 14.62597922 rev/day

Mean motion (dot): 0.00000502 rev/day2

B* drag term: 0.0001077 1/REarth

Two-line elements (TLE)

Creation date: July 7, 2025, 10:26 p.m.

Reference frame: TEME

Reference center: EARTH

Epoch: July 7, 2025, 9:06 p.m. UTC

TLE line 0: 0 YAOGAN-32 B

TLE line 1: 1 43643U 18077B 25188.87960305 .00000502 00000-0 10770-3 0 9990

TLE line 2: 2 43643 97.9399 221.7962 0001612 98.3820 261.7565 14.62597922359496

Live tracking on map

Real-time ground track for satellite YAOGAN-32 B.

In-orbit conjunctions

There are no conjunctions computed for YAOGAN-32 B, at the moment. Check back to stay up to date, as we update our databases every day.

Go to all conjunctions

Associated space launch

Yaogan is a series of Chinese reconnaissance satellites.

YAOGAN-32 B was lifted into orbit during the mission ‘Long March 2C/YZ-1S | Yaogan-32-01’, on board a Long March 2C/YZ-1S space rocket.

The launch took place on Oct. 9, 2018, 2:43 a.m. from Launch Area 4 (SLS-2 / 603).

For more information about the launch, click the button.

Launch to space Long March 2C/YZ-1S | Yaogan-32-01
Long March 2C/YZ-1S | Yaogan-32-01

Agency: N/A

Status: Launch Successful

Launch date: Oct. 9, 2018, 2:43 a.m. UTC

Rocket: Long March 2C/YZ-1S

Launch pad: Launch Area 4 (SLS-2 / 603)

Location: Jiuquan Satellite Launch Center, People's Republic of China

...

Latest news about this satellite

There are no fresh news available about this satellite. Check back as we update our databases every day.


Newsletter sign-up

Weekly statistics, charts and insights to help you stay on top of the space industry.